This is the latest recevied weather packets stored in our database for station/object KB1WCR. If no packets are shown the sender has not sent any weather packets the latest 10 day(s).
| Time | Temp. | Humidity | Pressure | Rain* | Wind** | Luminosity | Snow |
|---|---|---|---|---|---|---|---|
| 1777888148 | 2.22° C | 90% | 1008.3 hPa | 0 mm | - | 12 W/m² | - |
| 1777887846 | 2.78° C | 88% | 1008.1 hPa | 0 mm | - | 8 W/m² | - |
| 1777887543 | 2.78° C | 86% | 1008 hPa | 0 mm | - | 5 W/m² | - |
| 1777887238 | 2.78° C | 86% | 1008.3 hPa | 0 mm | - | 3 W/m² | - |
| 1777886934 | 2.78° C | 85% | 1008.4 hPa | 0 mm | - | 1 W/m² | - |
| 1777886630 | 2.22° C | 89% | 1008.4 hPa | 0 mm | - | 1 W/m² | - |
| 1777886328 | 2.22° C | 89% | 1008.7 hPa | 0 mm | - | 0 W/m² | - |
| 1777886026 | 1.67° C | 90% | 1008.5 hPa | 0 mm | - | 0 W/m² | - |
| 1777885724 | 1.11° C | 94% | 1008.4 hPa | 0 mm | - | 0 W/m² | - |
| 1777885422 | 1.11° C | 95% | 1008.4 hPa | 0 mm | - | 0 W/m² | - |
| 1777885120 | 0.56° C | 95% | 1008.4 hPa | 0 mm | - | 0 W/m² | - |
| 1777884816 | 0.56° C | 95% | 1008.3 hPa | 0 mm | - | 0 W/m² | - |
| 1777884513 | 0.56° C | 95% | 1008.3 hPa | 0 mm | - | 0 W/m² | - |
| 1777884210 | 0.56° C | 95% | 1008.3 hPa | 0 mm | - | 0 W/m² | - |
| 1777883906 | 0.56° C | 95% | 1008.4 hPa | 0 mm | - | 0 W/m² | - |
| 1777883603 | 0.56° C | 95% | 1008.5 hPa | 0 mm | - | 0 W/m² | - |
| 1777883299 | 0.56° C | 95% | 1008.5 hPa | 0 mm | - | 0 W/m² | - |
| 1777882995 | 0.56° C | 95% | 1008.5 hPa | 0 mm | - | 0 W/m² | - |
| 1777882692 | 0.56° C | 96% | 1008.5 hPa | 0 mm | - | 0 W/m² | - |
| 1777882389 | 0° C | 96% | 1008.4 hPa | 0 mm | - | 0 W/m² | - |
| 1777882085 | 0.56° C | 95% | 1008.4 hPa | 0 mm | - | 0 W/m² | - |
| 1777881782 | 0.56° C | 95% | 1008.4 hPa | 0 mm | - | 0 W/m² | - |
| 1777881479 | 0° C | 96% | 1008.4 hPa | 0 mm | - | 0 W/m² | - |
| 1777881176 | 0° C | 96% | 1008.3 hPa | 0 mm | - | 0 W/m² | - |
| 1777880874 | 0° C | 97% | 1008.3 hPa | 0 mm | - | 0 W/m² | - |
* Rain latest hour (hover to see other rain measurements)
** Current wind speed in m/s (hover to see current wind gust speed)